Location: ??
(31.9467°N, 34.8903°E)
Time: 18:46:15
(UTC+00:00)

Meteor 2-8 Rocket - Pass Details

Date: 29 October 2020
Orbit: 937 x 957 km, 82.5° (Epoch: 01 December)

Event Time Altitude Azimuth Distance (km) Brightness Sun altitude
Rises 15:23:28 0° 180° (S) 3,594 7.6 -7.1°
Reaches altitude 10° 15:25:56 10° 179° (S) 2,655 6.9 -7.6°
Maximum altitude 15:31:59 77° 95° (E) 974 4.4 -8.9°
Drops below altitude 10° 15:38:07 10° 10° (N) 2,683 6.6 -10.1°
Sets 15:40:38 0° 9° (N) 3,635 7.3 -10.7°
